Location: Baia de Cri?
(46.1667°N, 22.7167°E)
Time: 22:14:11
(UTC+00:00)

Cosmos 1943 Rocket - Pass Details

Date: 15 January 2026
Orbit: 811 x 842 km, 71.0° (Epoch: 11 February)

Event Time Altitude Azimuth Distance (km) Brightness Sun altitude
Rises 05:20:51 0° 236° (WSW) 3,327 5.0 -8.1°
Reaches altitude 10° 05:23:33 10° 247° (WSW) 2,398 4.2 -7.7°
Maximum altitude 05:28:21 30° 309° (NW) 1,413 2.9 -6.9°
Drops below altitude 10° 05:33:11 10° 10° (N) 2,410 4.4 -6.1°
Sets 05:35:55 0° 21° (NNE) 3,347 5.3 -5.7°
